Hourly Data Report for October 25, 2016

All times are specified in Local Standard Time (LST). Add 1 hour to adjust for Daylight Saving Time where and when it is observed.

GRISE FIORD CLIMATE
NUNAVUT

76°25'22.040" N
82°54'08.020" W
44.50 m
2402351
71971
NGC

Download Data

Hourly Data (October 2016)
Hourly Data Report for October 25, 2016
Temp Definition
°C
Dew Point Temp Definition
°C
Rel Hum Definition
%
Wind Dir Definition
10's deg

Wind Spd Definition
km/h
Visibility Definition
km
Stn Press Definition
kPa
Hmdx Definition


Wind Chill Definition


Weather Definition


TIME
00:00 -13.6 -15.6 85 8 3   101.49   -16 LegendNANA
01:00 -13.6 -15.7 84 4 11   101.42   -20 LegendNANA
02:00 -13.7 -16.8 78 12 6   101.36   -18 LegendNANA
03:00 -13.6 -17.2 74 6 13   101.29   -21 LegendNANA
04:00 -14.5 -17.6 77 9 6   101.25   -19 LegendNANA
05:00 -14.6 -18.4 73 9 8   101.18   -20 LegendNANA
06:00 -14.8 -19.0 70 6 10   101.13   -21 LegendNANA
07:00 -18.4 -21.4 78 11 3   101.09   -21 LegendNANA
08:00 -18.4 -20.6 83 10 2   101.02   -20 LegendNANA
09:00 -18.7 -21.6 78 10 3   100.96   -21 LegendNANA
10:00 -18.4 -20.8 82 5 3   100.90   -21 LegendNANA
11:00 -17.6 -20.3 80 6 2   100.83   -19 LegendNANA
12:00 -18.4 -21.8 75 14 7   100.79   -24 LegendNANA
13:00 -18.9 -21.6 79 10 7   100.74   -24 LegendNANA
14:00 -19.3 -22.8 74 12 3   100.72   -22 LegendNANA
15:00 -16.8 -20.0 76 15 9   100.70   -23 LegendNANA
16:00 -17.6 -22.3 66 17 4   100.68   -21 LegendNANA
17:00 -16.1 -20.9 66 13 6   100.66   -21 LegendNANA
18:00 -16.6 -21.9 64 13 4   100.62   -20 LegendNANA
19:00 -15.7 -21.2 63 12 7   100.58   -21 LegendNANA
20:00 -15.7 -21.5 61 14 5   100.53   -19 LegendNANA
21:00 -15.3 -21.1 61 21 3   100.52   -17 LegendNANA
22:00 -15.7 -21.7 60 20 4   100.53   -19 LegendNANA
23:00 -16.0 -22.2 59 29 9   100.53   -22 LegendNANA

Notes on Data Quality.

Legend

  • E = Estimated
  • M = Missing
  • NA = Not Available
  • ‡ = Partner data that is not subject to review by the National Climate Archives
Date modified: